Location: Tamazert
(32.6352°N, 5.2072°W)
Time: 01:23:40
(UTC+00:00)

Altair - Pass Details

Date: 05 October 2022
Orbit: 1501 x 1682 km, 47.2° (Epoch: 05 December)

Event Time Altitude Azimuth Distance (km) Brightness Sun altitude
Exits shadow 03:45:11 58° 202° (SSW) 1,808 7.5 -32.6°
Maximum altitude 03:47:21 75° 138° (SE) 1,644 7.5 -32.1°
Drops below altitude 10° 03:57:13 10° 55° (NE) 3,884 10.4 -30.1°
Sets 04:00:25 0° 54° (NE) 4,893 11.1 -29.5°
